CZ-4C DEB, 44613

Orbit data source: Space-Track

CZ-4C DEB, 44613 is space debris in SSO originally from a launch on Tue, 14 Nov 2017 UTC launched from the Taiyaun Space Center, China (TSC). Debris objects in space refer to the collection of defunct objects orbiting the Earth. Examples of debris include non-operational satellites, rocket bodies, and fragments generated from explosions, collisions, or faulty payload assembly.

Loading next visibility...
Identifier
44613, 2017-072D
Orbit
SSO
Country
Flag of CNCN / PRC
Related business
Manufacturer
Unknown
Mission
Spacecraft
Bus & Motor
Unknown
Mass
Unknown
Launch date (UTC)
2017-11-14 (8 years ago)
Launch vehicle
Unknown
Launch site
Taiyaun Space Center, China (TSC)
Object type
Payload
Rocket body
Debris
Shape & HBR
Unknown shape, 0.1 m
Radar Cross Section
Small (<0.1 m²)

Expand to show TLE details & history
Last TLE update: 1 day ago

TLE from 1 day ago
0 CZ-4C DEB
1 44613U 17072D   25309.61442751  .00000522  00000-0  44460-3 0  9994
2 44613  98.5230   1.9412 0229269 235.5696 122.3599 13.79863313387104
Epoch: 2025-11-05T14:44Z
TLE epoch observation values (Epoch: 2025-11-05T14:44:46.536Z)
Latitude
-0.00009°
Longitude
95.66275°
Altitude
1,060.06 km
Speed
7.276 km/s
True Right ascension
00h 07m 45s
True Declination
0° 00' 00"
Sunlit
Object was in full shadow at epoch
Visualization orbit readout
Latitude
Unknown
Longitude
Unknown
Altitude
Unknown
Speed
Unknown
Apparent Right ascension
Unknown
Apparent Declination
Unknown
Sunlit
N/A
Visualization observer readout
Local Sidereal Time
16:16:36
Azimuth
Unknown
Elevation
Unknown
Doppler factor
Unknown
Orbital elements
Apogee altitude
1,129.85 km
Perigee altitude
793.296 km
Semi-major axis
7,339.71 km
Eccentricity
0.02293
Inclination
98.523°
RAAN
1.9412°
Arg. of periapsis
235.5696°
True anomaly
124.54505°
Mean anomaly
122.3599°
Eccentric anomaly
123.45586°
Mean motion
3.45163 °/min
Orbital period
104.3 mins
BSTAR
0.0004446
Loading maneuver chart data...
Computing Atmospheric mass density...
Loading historical data...
Loading historical data...
Loading historical data...
Loading historical data...
Loading historical data...
Loading historical data...
Loading historical data...
Other satellites on launch #72 in the year 2017 (2017-11-14 UTC)

Documentation

Showing up to 5 results
|